Regional Weather Roundup
Issued by NWS Newport/Morehead, NC

Current Version | Previous Version | Text Only | Print | Product List | Glossary On
Versions: 1 2 3 4 5 6 7 8 9 10 11 12 13 14 15 16 17 18 19 20 21 22 23 24 25 26 27 28 29 30 31 32 33 34 35 36 37 38 39 40 41 42 43 44 45 46 47 48 49 50
465
ASUS42 KMHX 111625
RWRMHX
WEATHER ROUNDUP FOR EASTERN NORTH CAROLINA
NATIONAL WEATHER SERVICE NEWPORT/MOREHEAD CITY NC
1100 AM EST THU FEB 11 2016

NOTE: "FAIR" INDICATES FEW OR NO CLOUDS BELOW 12,000 FEET
WITH NO SIGNIFICANT WEATHER AND/OR OBSTRUCTIONS TO VISIBILITY

NCZ015>017-031-032-045>047-102-103-111700-
NORTH COAST

CITY           SKY/WX    TMP DP  RH WIND       PRES   REMARKS
EDENTON        SUNNY     33   7  33 W13G18    30.19S
ELIZABETH CITY SUNNY     31   7  36 W17       30.17F WCI  19
KITTY HAWK     SUNNY     32   9  37 W12G23    30.15S
MANTEO         SUNNY     32  12  43 NW13G24   30.17F

$$

NCZ045>047-081-094-103-104-111700-
CENTRAL COAST

CITY           SKY/WX    TMP DP  RH WIND       PRES   REMARKS
FRISCO         SUNNY     34  12  40 NW14G24   30.18R
SWANQUARTER      N/A     34 N/A N/A NW24G32   30.15S

$$

NCZ095-097-098-100-101-111700-
SOUTHERN COAST

CITY           SKY/WX    TMP DP  RH WIND       PRES   REMARKS
BEAUFORT       SUNNY     36  10  34 W16       30.22S
CEDAR ISLAND     N/A     36 N/A N/A W15G23    30.24S
JACKSONVILLE   SUNNY     36   8  31 W10G21    30.23S
PINEY ISLAND   SUNNY    N/A N/A N/A W20G25    30.21R
WILMINGTON     SUNNY     38  11  32 W8        30.24F


$$

NCZ011>013-027>030-043-044-078>080-089-090>093-098-111700-
COASTAL PLAIN

CITY           SKY/WX    TMP DP  RH WIND       PRES   REMARKS
AHOSKIE        SUNNY     31   7  36 NW3       30.20S
CLINTON        SUNNY     35  11  37 W9        30.24F
ELIZABETHTOWN  SUNNY     35   8  33 W3        30.24F
GOLDSBORO      SUNNY     34   7  32 W9        30.21R
GREENVILLE     SUNNY     34   7  32 NW10G17   30.22S
HAVELOCK       SUNNY     36   8  31 NW13G22   30.22S
KENANSVILLE    SUNNY     34   8  33 W12       30.24F
KINSTON        SUNNY     34   7  32 W8        30.23S
NEW BERN       SUNNY     36   9  32 W13G22    30.23S
RICHLANDS      SUNNY     36   9  32 W6        30.23F
ROCKY MOUNT    SUNNY     32   7  35 W13G21    30.22R
WASHINGTON     SUNNY     33   8  34 W9G18     30.21S
WHITEVILLE     SUNNY     37  11  35 W6        30.24F

$$

AMZ130-135-150-152-154-156-158-170-250-252-270-ANZ085-086-088-633-658-670-111700-
MARINE OBSERVATIONS

STATION/POSITION TIME  TEMP    WIND        PRES    WAVE   SWELL
                       AIR SEA DIR/SP/G            HT/PER HT/PER
                 (UTC) (F)     (DEG/KT/KT) (MB)    (FT/S) (FT/S)
CHESAPEAKE LIGHT 1500   29     290/ 22/ 26 1021.5
64 E VA BEACH    NOT AVBL
DUCK             1600          290/ 14/ 19 1020.7
2 E DUCK         1511      44                N/A     3/13   2/13
OREGON INLET     1600      40  300/ 17/ 22 1021.2
13E OREGON INLT  1600      47                N/A     6/ 5   2/12
HATTERAS CG      1600      44  310/ 23/ 27 1021.4
DIAMOND BUOY     NOT AVBL
CAPE LOOKOUT     NOT AVBL
BEAUFORT LAB     1600      45  310/  9/ 16 1022.1
30 SE NEW RVR IN 1608   36 59              1023.4
30 SE NEW RVR IN 1525      59                N/A     6/ 7   2/11
27 SE WRIGHTSVLE 1508   37 61  320/ 12/ 17 1022.4
5 SE WRIGHTSVLE  NOT AVBL
225 S CAPE HAT   NOT AVBL
41 SE CHARLESTON NOT AVBL

$$




USA.gov is the U.S. government's official web portal to all federal, state and local government web resources and services.